Gwinn, MI

3:25 AM EDT on July 25, 2016 (GMT -0400)
Sawyer International

Weather History for KSAW - October, 2013

Change the Weather History Date:

Saturday, October 5, 2013

  Actual Average (KESC) Record (KESC)
Temperature  
Mean Temperature 50 °F -  
Max Temperature 53 °F 58 °F 80 °F (1997)
Min Temperature 48 °F 43 °F 26 °F (1952)
Degree Days  
Heating Degree Days 14    
Moisture  
Dew Point 48 °F    
Average Humidity 94    
Maximum Humidity 100    
Minimum Humidity 81    
Precipitation  
Precipitation 0.05 in - - ()
Sea Level Pressure  
Sea Level Pressure 30.03 in    
Wind  
Wind Speed 8 mph (ENE)    
Max Wind Speed 14 mph    
Max Gust Speed -    
Visibility 6 miles    
Events Fog , Rain    
Averages and records for this station are not official NWS values.
T = Trace of Precipitation, MM = Missing Value Source: NWS Daily Summary

Daily Weather History Graph

Daily Weather History Graph

Search for Another Location

Airport or City:

Trip Planner

Search our weather history database for the weather conditions in past years. The results will help you decide how hot, cold, wet, or windy it might be!

Date:

Astronomy

Oct. 05, 2013 Rise Set
Actual Time 7:53 AM EDT 7:21 PM EDT
Civil Twilight 7:23 AM EDT 7:51 PM EDT
Nautical Twilight 6:48 AM EDT 8:25 PM EDT
Astronomical Twilight 6:13 AM EDT 9:01 PM EDT
Moon 8:36 AM EDT (10/5) 7:34 PM EDT (10/5)
Length of Visible Light 12h 27m
Length of Day
11h 27m
New Moon, 0% of the Moon is Illuminated
Oct 5
New Moon
Oct 11
First Quarter
Oct 18
Full
Oct 26
Last Quarter
Nov 3
New

Hourly Weather History & Observations

Time (EDT) Temp. Dew Point Humidity Pressure Visibility Wind Dir Wind Speed Gust Speed Precip Events Conditions
12:16 AM 53.8 °F 48.2 °F 81% 30.14 in 10.0 mi NE 9.2 mph - N/A   Overcast
12:37 AM 52.9 °F 48.9 °F 86% 30.12 in 10.0 mi ENE 6.9 mph - N/A   Drizzle
12:56 AM 52.5 °F 49.3 °F 89% 30.13 in 10.0 mi NE 3.5 mph - N/A   Light Drizzle
1:17 AM 52.0 °F 49.6 °F 92% 30.13 in 10.0 mi NNE 6.9 mph - N/A   Drizzle
1:37 AM 52.2 °F 49.6 °F 91% 30.12 in 10.0 mi East 5.8 mph - N/A   Overcast
1:56 AM 52.3 °F 49.5 °F 90% 30.11 in 10.0 mi ENE 6.9 mph - N/A   Overcast
2:17 AM 52.3 °F 49.1 °F 89% 30.12 in 10.0 mi East 6.9 mph - N/A   Overcast
2:37 AM 52.2 °F 49.5 °F 91% 30.11 in 10.0 mi ENE 8.1 mph - N/A   Overcast
2:56 AM 52.0 °F 49.3 °F 90% 30.11 in 10.0 mi ENE 8.1 mph - N/A   Overcast
3:17 AM 51.8 °F 49.3 °F 91% 30.11 in 10.0 mi East 6.9 mph - N/A   Overcast
3:36 AM 51.8 °F 49.5 °F 92% 30.10 in 10.0 mi East 4.6 mph - N/A   Overcast
3:57 AM 51.4 °F 49.1 °F 92% 30.09 in 10.0 mi East 9.2 mph - N/A   Overcast
4:17 AM 51.4 °F 49.1 °F 92% 30.09 in 10.0 mi East 9.2 mph - N/A   Overcast
4:37 AM 51.3 °F 48.9 °F 92% 30.09 in 10.0 mi East 13.8 mph - N/A   Overcast
4:56 AM 51.3 °F 48.7 °F 91% 30.09 in 10.0 mi ENE 9.2 mph - N/A Rain Light Rain
5:17 AM 50.9 °F 48.7 °F 92% 30.09 in 7.0 mi East 6.9 mph - 0.01 in Rain Rain
5:36 AM 50.2 °F 48.6 °F 94% 30.08 in 7.0 mi ENE 8.1 mph - 0.03 in Rain Rain
5:56 AM 50.4 °F 48.7 °F 94% 30.10 in 7.0 mi East 6.9 mph - 0.05 in Rain Rain
6:50 AM 50.0 °F 48.2 °F 94% 30.09 in 7.0 mi East 8.1 mph - N/A Rain Light Rain
7:50 AM 50.0 °F 48.2 °F 94% 30.07 in 7.0 mi East 8.1 mph - N/A Rain Rain
8:50 AM 50.0 °F 48.2 °F 94% 30.05 in 10.0 mi East 12.7 mph - N/A Rain Light Rain
9:55 AM 50.0 °F 48.2 °F 94% 30.05 in 10.0 mi East 6.9 mph - N/A   Light Drizzle
10:50 AM 48.2 °F 46.4 °F 93% 30.04 in 10.0 mi East 8.1 mph - N/A   Overcast
11:50 AM 48.2 °F 46.4 °F 93% 30.04 in 7.0 mi East 8.1 mph - N/A   Overcast
12:20 PM 48.2 °F 48.2 °F 100% 30.04 in 2.5 mi East 10.4 mph - N/A   Overcast
12:45 PM 48.2 °F 48.2 °F 100% 30.05 in 1.5 mi East 4.6 mph - N/A   Overcast
1:50 PM 48.2 °F 48.2 °F 100% 30.06 in 1.2 mi ENE 6.9 mph - N/A   Overcast
2:45 PM 48.2 °F 48.2 °F 100% 29.99 in 0.5 mi ENE 8.1 mph - N/A Fog Fog
3:50 PM 48.2 °F 48.2 °F 100% 29.97 in 4.0 mi East 8.1 mph - N/A   Light Drizzle
4:50 PM 48.2 °F 48.2 °F 100% 29.96 in 2.0 mi ENE 6.9 mph - N/A Rain Light Rain
5:50 PM 48.2 °F 48.2 °F 100% 29.96 in 5.0 mi ENE 6.9 mph - N/A Rain Rain
6:50 PM 48.2 °F 48.2 °F 100% 29.95 in 5.0 mi NE 9.2 mph - N/A Rain Heavy Rain
7:50 PM 48.2 °F 46.4 °F 93% 29.94 in 10.0 mi NE 6.9 mph - N/A Rain Rain
8:50 PM 48.2 °F 46.4 °F 93% 29.91 in 7.0 mi NE 8.1 mph - N/A   Overcast
9:50 PM 48.2 °F 46.4 °F 93% 29.89 in 0.5 mi ENE 6.9 mph - N/A Fog Fog
10:17 PM 48.7 °F 48.2 °F 98% 29.88 in 1.0 mi East 5.8 mph - N/A   Overcast
10:36 PM 49.3 °F 48.6 °F 97% 29.86 in 1.8 mi ESE 5.8 mph - N/A   Overcast
10:57 PM 49.5 °F 48.7 °F 97% 29.86 in 1.2 mi ESE 6.9 mph - N/A   Overcast
11:16 PM 49.6 °F 49.1 °F 98% 29.85 in 1.0 mi ESE 6.9 mph - N/A   Overcast
11:37 PM 50.0 °F 49.1 °F 97% 29.84 in 0.5 mi ESE 11.5 mph - N/A Fog Fog
11:56 PM 50.0 °F 49.3 °F 97% 29.83 in 0.5 mi ESE 8.1 mph - N/A Fog Fog